Regional Weather Roundup
Issued by NWS Pendleton, OR

Home | Current Version | Previous Version | Text Only | Print | Product List | Glossary On
Versions: 1 2 3 4 5 6 7 8 9 10 11 12 13 14 15 16 17 18 19 20 21 22 23 24 25 26 27 28 29 30 31 32 33 34 35 36 37 38 39 40 41 42 43 44 45 46 47 48 49 50
000
ASUS46 KPDT 301525
RWRPDT
PENDLETON REGIONAL WEATHER ROUNDUP
NATIONAL WEATHER SERVICE PENDLETON OREGON
800 AM PDT WED JUL 30 2014

NOTE: FAIR INDICATES FEW OR NO CLOUDS BELOW 12,000 FEET WITH NO
SIGNIFICANT WEATHER AND/OR OBSTRUCTIONS TO VISIBILITY.

# INDICATES UNOFFICIAL STATION AND DATA

WAZ520-301610-
EAST SLOPES OF WASHINGTON CASCADES

CITY            SKY/WX      TMP DP  RH  WIND    PRES   REMARKS
#BUMPING DAM    N/A         53  N/A N/A CALM    N/A
#CLE ELUM HS    N/A         69  44  40  W7      30.03R
#CLE ELUM LAKE  N/A         63  48  58  CALM    29.93S
#CLIFFDEL 2NW   N/A         57  45  64  N1      N/A
#GLENWOOD       N/A         61  57  87  CALM    29.97S
#MANASTASH CYN  N/A         64  39  40  CALM    30.06S
#NELSON         N/A         67  49  52  N1      29.98S
#NELSON 3SW     N/A         65  47  52  CALM    30.16R
#NILE           N/A         67  44  43  SW2     29.27F
#RONALD 2NW     N/A         62  50  65  CALM    29.99S
#TROUT LAKE 1NE N/A         61  55  81  CALM    29.96S
$$

WAZ521-301610-
SIMCOE HIGHLANDS

CITY            SKY/WX      TMP DP  RH  WIND    PRES   REMARKS
#CENTERVILLE 1SWN/A         72  55  55  W9      29.93R
#GOLDENDALE 1NE N/A         67  54  63  W3      N/A
#GOLDENDALE 1S  N/A         67  58  73  CALM    30.03S
#GOLDENDALE 5WNWN/A         69  56  63  W3      29.95R
#GOODNOE HILLS  N/A         74  58  57  NW5     29.98R
#LYLE 6NE       N/A         66  58  75  SE2     29.95R
$$

WAZ026-301610-
KITTITAS VALLEY

CITY            SKY/WX      TMP DP  RH  WIND    PRES   REMARKS
ELLENSBURG AP   PTCLDY      75  46  36  N20G25  30.04R
#ELLENSBURG 3NE N/A         71  50  47  NW12    30.04R
#ELLENSBURG 1E  N/A         69  44  40  CALM    N/A
#KITTITAS 3S    N/A         67  54  63  CALM    29.94R
#THORP 6N       N/A         68  46  45  N22G29  29.93F
$$

WAZ027-301610-
YAKIMA VALLEY

CITY            SKY/WX      TMP DP  RH  WIND    PRES   REMARKS
YAKIMA AIRPORT  SUNNY       78  44  30  N6      30.03R
YAKIMA-VAGABOND PTCLDY      77  42  29  E15     30.04R
#COWICHE 1N     N/A         73  41  31  W13     30.14R
#DONALD 2NE     N/A         85  38  19  SW1     30.33R
#GRANDVIEW      N/A         71  56  59  CALM    29.96R
#MABTON         N/A         70  60  71  CALM    29.99R
#MOXEE 2E       N/A         73  35  25  S3      29.93S
#NACHES 2SW     N/A         71  46  41  W12     30.05R
#OUTLOOK DOT    N/A         N/A N/A N/A NW5     N/A
#SELAH 8E       N/A         77  41  28  E7      N/A
#TERRACE HTS    N/A         70  49  47  SW2     29.89R
#TOPPENISH      N/A         73  54  51  CALM    29.87R
#WAPATO 4NE     N/A         86  37  18  SW2     30.33R
#WEST VALLEY    N/A         71  54  55  CALM    29.92R
#W YAKIMA       N/A         76  46  34  NE3     29.94R
#WHITE SWAN 5E  N/A         71  59  66  CALM    29.94R
#WILEY CITY 3W  N/A         69  41  36  CALM    30.01R
$$

WAZ028-301610-
LOWER COLUMBIA BASIN...WASHINGTON

CITY            SKY/WX      TMP DP  RH  WIND    PRES   REMARKS
HANFORD         MOCLDY      78  44  30  NW7     29.98R
PASCO           MOCLDY      75  60  60  NW3     29.97R
PROSSER AWOS    N/A         75  61  62  S2      30.02R
RICHLAND AWOS   PTCLDY      79  55  44  SW6     29.98R
#BASIN CITY 5SW N/A         67  59  75  CALM    29.98R
#BENTON CITY    N/A         75  58  56  W3      29.84S
#CONNELL 5N     N/A         72  49  44  CALM    29.93R
#CONNELL 5NW    N/A         71  53  53  CALM    29.89R
#ELTOPIA 6NW    N/A         72  63  73  CALM    28.96R
#KENNEWICK 3S   N/A         68  62  81  S2      29.93R
#PASCO-BROADMOORN/A         75  61  62  NE1     29.85R
#PATERSON       N/A         76  59  56  CALM    29.95R
#PROSSER        N/A         77  55  47  CALM    29.93S
#SAGEMOOR 2W    N/A         73  60  64  CALM    29.79R
#TOUCHET 2S     N/A         81  60  49  N1      29.93R
#WEST PASCO     N/A         75  59  58  CALM    29.95R
$$

WAZ029-301610-
FOOTHILLS OF THE BLUES...WASHINGTON

CITY            SKY/WX      TMP DP  RH  WIND    PRES   REMARKS
WALLA WALLA AP  MOCLDY      82  49  32  E5      30.02S
#COLLEGE PLACE  N/A         76  54  46  CALM    29.98R
#DAYTON SCHOOL  N/A         75  44  33  E6      30.02S
#LOWDEN 2SE     N/A         75  58  56  E1      29.94S
#PLEASANT VIEW 1N/A         75  52  45  S8      29.94S
#PRESCOTT       N/A         70  58  66  CALM    29.93S
#SUDBURY        N/A         81  N/A N/A CALM    N/A
#WHITMAN COLLEGEN/A         80  52  38  CALM    29.97S
#WAITSBURG 8N   N/A         78  36  22  S7      29.88S
#WALLA WALLA 5E N/A         83  50  32  CALM    N/A
#WALLA WALLA U  N/A         77  58  52  CALM    29.92S
#WHITMAN MISSIONN/A         70  60  71  CALM    29.94
$$

WAZ030-301610-
BLUE MOUNTAINS...WASHINGTON

CITY            SKY/WX      TMP DP  RH  WIND    PRES   REMARKS
$$

ORZ009-041-WAZ024-301610-
COLUMBIA RIVER GORGE

CITY            SKY/WX      TMP DP  RH  WIND    PRES   REMARKS
HOOD RIVER AP   SUNNY       68  55  63  CALM    30.05R
THE DALLES AP   SUNNY       72  58  61  NW14    30.01S
#ARLINGTON AIRPON/A         75  56  52  SW13    N/A
#ARLINGTON HS   N/A         77  56  48  CALM    29.88R
#CELILO DOT     N/A         79  57  47  S2      N/A
#MOSIER 1S      N/A         67  54  63  NW6     30.09S
#MURDOCK        N/A         71  61  71  NW12    30.02S
#RUFUS DOT      N/A         75  59  58  W8      N/A

$$

ORZ510-301610-
NORTH CENTRAL OREGON

CITY            SKY/WX      TMP DP  RH  WIND    PRES   REMARKS
#CHENOWITH 1W   N/A         63  56  78  W14     N/A
#COW CYN RST AREN/A         75  41  29  S6      N/A
#DUFUR 9E       N/A         76  49  39  CALM    29.98R
#GRASS VALLEY 1SN/A         73  47  40  SW2     29.97F
#KENT DOT       N/A         78  43  29  W2      N/A
#MAUPIN SCHOOL  N/A         69  52  55  CALM    30.07R
#MORO SCHOOL    N/A         75  54  48  SW1     30.07S
#SHANIKO 5WSW   N/A         77  38  24  W2      N/A
#SHANIKO 4NW    N/A         74  40  29  W3      30.17S
#TYGH VALLEY 2NEN/A         68  51  55  CALM    29.98S
#WAPANITIA AIRPON/A         70  49  47  W2      29.97S
#WASCO DOT      N/A         75  58  56  W5      N/A
#WASCO 5NE      N/A         74  55  51  SW9     29.95R
$$

ORZ511-301610-
CENTRAL OREGON

CITY            SKY/WX      TMP DP  RH  WIND    PRES   REMARKS
BEND AIRPORT    SUNNY       72  48  43  SW7     30.18R
MADRAS AIRPORT  SUNNY       68  46  45  SW3     30.14R
REDMOND AIRPORT SUNNY       69  42  37  S5      30.15R
#BEND 6E        N/A         71  44  38  CALM    29.91S
#BEND 1SW       N/A         64  47  54  S1      N/A
#BEND-AWBREY    N/A         67  50  54  N6      29.96R
#BEND-KIM LN    N/A         66  50  56  SW6     30.15R
#CULVER         N/A         66  50  56  W1      30.10R
#CULVER 1E      N/A         66  51  58  CALM    30.14R
#LAKE BILLY CHINN/A         70  23  17  CALM    30.16S
#POWELL BUTTE 3EN/A         64  46  52  S2      N/A
#POWELL BUTTE   N/A         81  53  38  N2      29.80R
#PRINEVILLE 3N  N/A         65  52  63  CALM    29.95R


ORZ509-301610-
EAST SLOPES OF OREGON CASCADES

CITY            SKY/WX      TMP DP  RH  WIND    PRES   REMARKS
#BLUE BOX PASS  N/A         61   7  11  NW1     N/A
#BLACK BUTTE RNCN/A         59  55  87  CALM    29.99R
#CAMP SHERMAN   N/A         52  51  96  CALM    30.09S
#LA PINE DOT    N/A         63  46  54  CALM    N/A
#LA PINE 4NW    N/A         55  45  69  CALM    30.04S
#LAVA BUTTE DOT N/A         61  48  62  CALM    N/A
#SISTERS AIRPOR N/A         64  55  73  N1      30.14R
#SISTERS ODOT   N/A         70  N/A N/A CALM    N/A
#SISTERS 3N     N/A         61  52  72  CALM    N/A
#SUNRIVER       N/A         57  52  83  CALM    29.91R
#SUNRIVER AP    N/A         54  49  83  CALM    29.98R
#SUTTLE LK DOT  N/A         62  57  84  W15     N/A
#TUMALO 3W      N/A         71  48  44  SW2     29.84R
#WANOGA BUTTE D N/A         67  42  40  E3      N/A

$$

ORZ044-301610-
LOWER COLUMBIA BASIN...OREGON

CITY            SKY/WX      TMP DP  RH  WIND    PRES   REMARKS
HERMISTON       PTCLDY      81  55  41  NW5     30.00R
#BOARDMAN SCHOOLN/A         78  56  47  W1      29.96S
#BOARDMAN 3W    N/A         80  60  51  SW6     29.68S
#BOARDMAN 8SW   N/A         78  59  52  SW13    29.95S
#IONE SCHOOL    N/A         80  47  31  SW7     30.01S
#IRRIGON 4NW    N/A         74  60  62  SW3     N/A
#UMATILLA SCHOOLN/A         78  63  60  CALM    30.01F
#UMATILLA       N/A         76  56  50  CALM    29.96S
$$

ORZ507-301610-
NORTHERN FOOTHILLS OF THE BLUES

CITY            SKY/WX      TMP DP  RH  WIND    PRES   REMARKS
PENDLETON AIRPT PTCLDY      82  44  26  VRB3    30.03R
#ADAMS 3WNW     N/A         77  50  39  CALM    29.92R
#ATHENA         N/A         78  50  38  CALM    29.94S
#HELIX SCHOOL   N/A         74  51  44  CALM    29.93R
#HELIX 3N       N/A         80  47  31  W9      30.02R
#HOLDMAN 5SE    N/A         80  52  38  W5      30.03R
#HOLDMAN 6E     N/A         78  50  38  NE7     29.76R
#M-F FERNDALE   N/A         74  57  55  CALM    29.98S
#M-F GROVE ELEM N/A         79  54  42  CALM    29.99S
#M-FREEWATER 5SEN/A         79  53  41  CALM    30.01S
#PDT AQUATIC CTRN/A         75  51  43  CALM    29.95S
#PENDLETON DNTN N/A         72  49  44  CALM    29.98S
#PENDLETON 5NE  N/A         75  52  45  CALM    29.99R
#PENDLETON 7NW  N/A         79  55  44  CALM    27.76S
#PILOT ROCK     N/A         81  47  30  SE5     30.06S
#TUTUILLA       N/A         79  55  44  CALM    29.90R
#UMAPINE 2E     N/A         74  60  62  CALM    29.96R
#WESTON SCHOOL  N/A         82  44  26  W2      30.02S

$$

ORZ508-301610-
SOUTHERN FOOTHILLS OF THE BLUES

CITY            SKY/WX      TMP DP  RH  WIND    PRES   REMARKS
#AJAX           N/A         75  41  29  W2      30.01R
#CONDON SCHOOL  N/A         70  47  44  CALM    30.08R
#CONDON 5W      N/A         76  41  28  W3      30.12R
#FOSSIL SCHOOL  N/A         70  47  44  CALM    30.09S
#HEPPNER EOC    N/A         78  47  34  E1      29.88F
#LEXINGTON 2SE  N/A         77  52  42  CALM    30.01S
#MIKKALO        N/A         79  42  27  NW6     30.07R
#OLEX 4N        N/A         76  51  42  W7      30.01R
#RUGGS 5NE      N/A         82  47  29  S2      30.30S
#RUGGS 2SW      N/A         78  44  30  E1      29.97R

$$

ORZ502-503-301610-
BLUE MOUNTAINS

CITY            SKY/WX      TMP DP  RH  WIND    PRES   REMARKS
MEACHAM         PTCLDY      63  54  72  CALM    30.18S
#BATTLE MTN DOT N/A         67  52  59  S2      N/A
#HARDMAN 10S    N/A         73  44  35  CALM    30.23F
#LADD CYN SMT   N/A         74  43  33  E7      N/A
#LADD CREEK ODOTN/A         71  50  47  SW2     N/A
#LONG CREEK HS  N/A         69  48  47  CALM    30.13R
#N POWDER DOT   N/A         68  56  65  CALM    N/A
#PIKES PEAK     N/A         77  44  31  SW15    27.99S
#TOLLGATE 9W    N/A         70  46  42  E2      N/A
#UKIAH          N/A         64  50  60  CALM    30.00S
#WESTON 4E      N/A         77  47  35  SE3     29.85S
$$

ORZ505-301610-
JOHN DAY BASIN

CITY            SKY/WX      TMP DP  RH  WIND    PRES   REMARKS
JOHN DAY        SUNNY       73  45  37  E3      30.19S
#MONUMENT HS    N/A         62  59  90  CALM    29.89R
#MT. VERNON 5SE N/A         73  45  37  CALM    30.16R
#WINLOCK        N/A         79  47  32  CALM    30.22R
$$

ORZ506-301610-
OCHOCO AND JOHN DAY HIGHLANDS

CITY            SKY/WX      TMP DP  RH  WIND    PRES   REMARKS
#BUCK CREEK DOT N/A         75  50  41  N2      N/A
#HORSE RIDGE DO N/A         67  39  36  CALM    N/A
#KEYES SMT DOT  N/A         75  43  32  CALM    N/A
#PINE MTN OBS   N/A         69  39  33  SE1     N/A
#PRAIRIE CITY   N/A         67  50  54  CALM    30.08F
#SENECA 9NW     N/A         52  44  74  CALM    29.97R
$$

ORZ049-301610-
GRANDE RONDE VALLEY

CITY            SKY/WX      TMP DP  RH  WIND    PRES   REMARKS
LA GRANDE       MOCLDY      73  46  38  NE3     30.13R
#COVE           N/A         69  54  59  CALM    30.04R
#COVE SCHOOL    N/A         71  51  49  CALM    30.11R
#COVE 6NW       N/A         65  53  65  CALM    30.00R
#ELGIN 3N       N/A         68  51  55  CALM    29.86R
#ELGIN 1E       N/A         63  51  65  CALM    N/A
#IMBLER SCHOOL  N/A         66  48  52  CALM    30.08R
#ISLAND CITY 4N N/A         66  55  68  N2      29.91R
#LADD CYN DOT   N/A         74  48  40  NE7     N/A
#UNION 1S       N/A         74  47  38  CALM    29.87R
$$

ORZ050-301610-
WALLOWA COUNTY

CITY            SKY/WX      TMP DP  RH  WIND    PRES   REMARKS
JOSEPH AIRPORT  MOCLDY      72  45  38  CALM    30.22R
#ENTERPRISE AP  N/A         67  45  45  SE1     30.12R
#ENTERPRISE HS  N/A         67  49  52  CALM    30.18S
#IMNAHA SCHOOL  N/A         65  43  45  CALM    30.09S
#IMNAHA 10S     N/A         68  41  37  S5      30.13S
#JOSEPH 3N      N/A         66  53  63  CALM    30.20R
#JOSEPH 3W      N/A         74  46  37  CALM    30.06S
#LOSTINE        N/A         66  50  56  CALM    29.78S
#MT HOWARD 8000 N/A         62  30  30  N2      30.48S
#PROMISE 1S     N/A         74  49  41  NW1     30.02F
#SHEEP RDG 7000 N/A         66  31  27  CALM    29.92S
#WALLOWA SCHOOL N/A         62  48  60  CALM    30.87S



$$



USA.gov is the U.S. government's official web portal to all federal, state and local government web resources and services.